Карточка аэропорта UNTT

Внимание!
Информация на этой странице в стадии наполнения.
Если вы не увидели какой-то информации, или заметили неточность - пожалуйста сообщите нам!
Спасибо!
Команда RU-STAFF
Название аэропортаБогашево
Название аэропорта (англ.)Bogashevo
Превышение597 ft. (182 m.)
Координаты56°22.2', 85°12.6'
Высота перехода1000m
Эшелон переходаQFE>=743mm:FL040; QFE<743mm:FL050
Коды ответчика5230-5247
Зона ОрВДНовосибирск РПИ (UNNT)
Данные METARUNTT 200104Z 25003MPS 7000 OVC002 18/18 Q0998 R21/190055 NOSIG RMK QFE733
Проноз погоды (TAF)UNTT 200036Z 2000/2009 23003G08MPS 2000 SHRA BKN002 BKN016CB TEMPO 2000/2001 0300 FG BECMG 2001/2003 BKN011 BKN016CB TEMPO 2003/2009 27005G14MPS TSRA
NOTAMshow/hide NOTAM
AWOS   TABLE

Информация о ВПП

ВПП Длина ВПП (м.) Покрытие Курс ВПП Частота ILS
032500Асфальтобетон25 
212500Асфальтобетон205110.3

Диспетчерские позиции




Спутниковое изображение